Theta_e
313 314 315 316 316 320 319 316 312 313 313 318 319 320 322 321 320 319 319 317 319 320 319 317 318 323 323 323 328 325 328 332 333 330 327 324 327 324 323 325 329 330 328 329 336
311 313 314 315 316 316 319 319 316 313 311 313 318 318 321 321 320 319 320 319 319 320 319 322 320 322 319 321 326 327 328 331 327 326 327 324 325 325 324 326 331 335 333 334 335
310 311 313 314 315 315 315 319 318 316 313 310 315 318 321 321 321 321 321 321 320 320 318 321 323 322 323 321 324 328 330 329 327 326 325 325 324 321 322 325 327 332 334 333 333
311 310 310 312 313 314 315 315 319 318 315 311 314 317 320 320 313 319 319 321 321 321 319 321 322 322 322 321 319 328 326 326 326 325 326 326 323 325 323 324 322 322 333 332 331
310 309 310 309 311 312 313 313 314 319 317 313 311 317 321 320 321 319 319 318 322 321 319 321 321 320 321 319 319 322 323 324 325 325 325 325 326 325 324 322 324 331 333 332 332
309 308 309 309 309 310 311 312 312 317 319 315 311 316 319 320 317 318 320 319 321 321 320 321 321 319 320 320 319 319 319 322 322 326 327 327 327 328 326 321 323 330 332 331 331
308 307 307 307 309 309 309 310 311 312 319 317 312 316 318 316 319 319 320 320 320 320 321 322 321 323 320 322 321 322 323 323 323 322 327 325 327 328 325 324 324 324 328 330 330
307 306 306 306 307 308 308 308 311 312 313 318 314 316 315 314 319 320 321 320 320 322 322 322 325 324 323 321 322 323 321 322 320 321 323 324 324 321 322 323 324 322 319 319 327
306 306 305 305 306 306 307 307 309 311 312 316 315 314 313 312 315 317 321 321 322 322 322 324 324 323 324 321 322 322 321 323 322 317 321 325 325 321 319 319 320 318 316 319 317
304 304 304 304 304 304 306 307 308 310 312 314 315 313 310 314 316 315 322 321 322 322 323 324 322 323 321 318 322 324 321 319 318 316 314 320 323 320 320 318 318 316 314 314 319
305 304 303 303 303 304 306 308 309 310 314 317 316 311 310 312 314 317 320 322 322 322 324 323 325 325 324 321 316 320 320 318 317 315 317 315 315 320 319 317 316 315 313 313 314
303 304 304 303 303 303 305 307 308 312 315 314 315 312 311 313 317 318 320 321 322 324 321 324 324 320 320 321 321 318 318 318 317 317 317 317 318 317 316 317 316 316 315 313 313
304 303 304 303 302 303 306 307 309 310 314 313 314 313 312 315 316 319 319 320 321 322 323 321 319 319 320 322 324 321 319 319 319 318 317 319 318 318 317 317 317 316 316 316 314
303 303 303 304 304 304 305 305 306 308 313 313 316 314 312 314 316 316 319 319 320 322 322 320 317 320 321 322 322 323 318 319 320 321 321 317 320 316 316 315 315 315 315 316 316
301 302 303 304 303 304 303 304 305 305 313 311 315 312 313 316 316 316 319 317 319 320 320 320 320 320 322 322 320 321 318 319 319 320 320 320 320 316 314 316 315 314 312 313 314
300 301 302 304 303 302 302 303 304 308 311 313 314 315 314 313 316 317 319 316 316 318 318 316 316 317 320 319 319 316 317 318 318 318 322 319 320 315 315 316 314 311 310 310 311
301 301 301 302 303 302 303 305 306 308 308 312 313 314 313 314 316 318 319 319 317 320 320 315 318 316 316 319 317 319 321 320 323 322 318 313 319 315 311 311 310 310 310 311 311
301 301 301 302 302 302 303 305 306 306 305 310 312 313 315 314 315 315 319 318 317 315 316 321 321 317 315 317 320 321 320 316 317 321 317 313 319 315 311 311 310 309 308 311 308
301 301 300 302 302 302 303 305 306 305 304 312 312 314 313 314 314 316 319 318 318 315 316 319 319 315 315 315 318 319 322 314 313 301 311 312 310 309 309 310 309 310 309 309 307
300 300 300 301 302 302 304 305 304 306 306 307 313 313 315 314 314 316 314 316 317 316 312 315 318 315 315 315 316 319 316 320 315 313 313 313 311 311 310 310 309 309 309 308 307
300 300 300 300 301 302 304 304 304 304 307 308 308 311 312 314 314 315 315 315 315 316 314 312 313 314 315 318 319 320 321 318 318 312 315 313 311 307 310 309 310 307 306 307 306
299 299 299 300 302 301 303 303 303 305 306 308 308 309 310 312 315 314 314 314 314 314 318 314 314 318 319 311 311 318 318 318 320 317 315 313 313 307 307 306 305 306 307 305 306
298 300 300 300 300 300 301 302 304 304 304 307 309 310 310 311 313 313 313 311 312 315 317 316 317 317 319 316 313 318 317 318 317 312 317 318 316 311 306 307 306 307 307 306 306
297 299 301 299 298 298 296 302 301 303 304 304 308 308 310 312 311 313 313 310 312 314 315 315 315 316 316 318 316 319 318 317 318 320 318 315 315 311 308 306 304 304 307 305 305
294 292 296 299 298 295 299 301 302 302 303 305 305 309 310 310 312 312 312 311 311 314 314 315 317 315 314 308 314 316 317 318 319 318 319 317 314 313 312 309 305 302 305 305 304
294 295 296 290 296 296 299 300 301 302 303 304 306 306 307 309 310 311 311 310 312 311 314 313 316 315 315 310 309 314 314 315 317 317 317 316 315 313 312 309 305 304 304 304 305
298 297 295 298 298 297 297 297 298 298 299 301 302 303 305 307 307 305 306 309 309 312 314 314 316 317 318 311 309 313 313 314 315 314 316 317 315 313 313 308 308 303 302 305 306
Wind_Speed
17 17 15 13 12 17 17 14 13 14 12 11 8 7 7 7 8 8 5 7 4 5 10 14 10 13 3 4 2 3 3 1 4 2 4 3 3 2 1 5 4 4 4 4 26
17 17 17 15 13 12 16 16 14 12 13 13 11 8 7 5 6 10 12 9 10 7 7 5 4 10 3 3 3 4 3 4 2 1 1 4 3 2 3 3 3 3 6 17 27
19 17 16 15 14 14 12 16 16 13 11 13 12 9 7 3 2 6 9 15 13 8 7 3 3 2 0 2 1 4 5 4 2 1 2 3 4 4 7 2 5 6 7 11 16
18 19 15 15 15 13 12 11 17 16 13 11 13 11 8 6 7 1 3 8 17 14 7 2 1 2 3 4 2 3 3 2 5 1 1 2 3 2 2 2 4 8 16 14 12
20 20 20 16 16 15 14 12 13 18 16 12 14 12 10 3 6 2 4 1 11 13 9 2 3 4 5 3 1 3 3 3 4 4 2 0 1 2 4 4 4 12 13 12 13
21 19 18 17 17 15 13 15 12 14 17 15 15 15 6 9 13 13 3 5 6 13 9 5 4 3 3 2 3 1 4 2 3 3 3 4 3 2 6 5 4 9 11 10 14
21 18 16 17 17 15 14 14 14 13 16 17 15 15 6 12 7 15 13 5 3 11 5 8 2 1 1 1 3 3 3 2 2 3 4 4 5 8 8 4 4 8 8 10 17
22 20 19 16 16 17 17 14 13 13 12 18 16 15 6 19 11 7 10 7 8 7 4 3 4 2 2 1 4 4 4 3 4 7 5 7 10 7 7 6 10 7 8 9 12
25 23 21 20 17 13 16 17 13 13 15 17 15 10 5 14 15 19 11 11 11 6 3 6 4 2 1 5 2 2 3 4 5 8 5 7 8 7 9 8 9 9 8 9 10
27 26 24 22 20 17 14 13 12 11 14 10 13 5 7 7 11 26 16 15 6 8 3 3 3 4 2 4 8 6 5 4 6 5 6 6 11 9 5 6 9 8 9 8 8
29 29 26 23 21 19 14 5 3 3 13 7 8 3 2 15 22 19 21 12 6 4 6 4 7 14 15 8 5 6 5 6 3 6 3 7 11 17 9 6 9 9 8 9 10
31 29 28 26 23 21 19 5 4 1 5 21 8 13 7 19 8 14 27 9 7 12 7 4 17 7 6 5 6 4 5 4 5 4 5 6 8 11 7 7 8 10 10 10 7
29 30 29 29 26 22 25 25 7 8 4 4 17 9 5 12 9 21 24 9 7 14 15 13 3 10 12 7 12 10 7 4 4 3 3 4 9 8 9 5 8 8 11 12 13
28 29 30 29 21 25 22 27 26 4 6 9 13 9 9 2 5 15 29 13 6 17 13 11 8 17 11 16 10 14 7 7 4 2 5 1 6 6 5 10 7 9 12 16 18
28 28 31 33 18 21 7 22 17 4 10 12 10 19 13 8 8 10 26 6 10 7 8 10 13 11 16 15 16 7 8 8 4 2 2 2 4 6 2 6 11 13 12 13 15
31 32 31 31 24 30 23 23 15 9 11 7 9 13 12 16 6 9 17 2 3 7 8 7 6 16 9 13 16 7 6 4 3 2 9 10 7 5 6 10 7 6 9 9 7
31 31 34 34 24 26 29 15 8 12 9 9 11 16 27 12 16 11 21 24 11 11 13 4 4 2 7 8 5 13 11 2 3 4 8 3 9 17 5 6 7 9 7 6 8
30 27 32 36 30 29 29 9 15 15 9 2 11 24 23 22 12 10 22 20 21 13 9 12 12 10 6 7 9 19 13 5 7 6 3 5 9 6 10 9 8 11 8 5 6
26 26 28 34 33 33 11 16 14 9 9 9 8 16 17 20 12 13 17 26 22 20 11 15 14 2 5 5 14 7 11 8 5 3 2 5 6 9 8 6 8 6 6 7 8
26 21 27 34 35 23 12 20 6 5 7 11 13 10 18 22 17 18 17 18 16 23 5 5 6 4 7 3 6 13 10 5 2 5 5 4 5 8 3 9 7 6 7 7 5
17 5 17 33 33 8 10 6 8 6 7 12 18 8 12 11 20 20 14 3 24 25 13 5 4 3 6 12 11 8 11 4 6 5 5 2 7 8 15 12 14 10 9 9 8
11 7 17 31 10 2 8 7 6 3 2 6 6 7 10 15 15 20 24 19 22 19 25 9 4 4 14 0 3 16 11 14 9 12 8 1 10 3 9 7 8 8 9 9 9
8 2 18 26 8 10 1 4 2 11 2 3 11 8 5 16 13 13 18 17 12 25 20 14 7 5 4 1 2 10 9 18 15 2 14 7 11 10 8 4 5 8 8 7 7
4 4 4 5 3 6 2 5 5 4 7 8 5 4 8 13 12 18 15 10 15 18 23 21 6 19 14 18 8 12 21 20 21 12 19 16 22 9 7 9 9 9 10 9 10
2 3 2 6 9 4 9 3 8 5 3 11 5 7 9 10 14 6 23 7 9 21 14 11 15 10 16 0 16 19 22 24 20 27 17 26 20 22 20 14 11 6 5 7 9
4 4 3 2 8 14 10 11 4 5 2 4 7 2 12 8 6 13 12 10 15 13 20 8 8 16 19 8 4 13 15 18 20 24 22 22 20 22 26 11 8 10 9 9 13
4 4 4 6 6 8 11 17 13 8 5 18 15 6 9 9 11 12 7 5 4 9 20 17 13 8 18 11 6 9 15 21 22 26 24 25 31 30 28 11 14 10 9 16 19
Wind_Direction
246 244 244 244 243 235 235 234 236 233 239 238 245 253 262 281 296 298 264 238 271 306 298 290 318 0 343 335 343 78 55 68 343 28 279 316 106 356 58 99 57 9 155 219 170
240 238 238 238 236 239 233 231 232 231 230 236 236 243 254 272 303 273 250 253 253 260 321 12 342 352 10 337 335 95 123 188 233 188 307 315 65 125 95 108 51 29 36 140 161
229 233 233 233 236 239 238 229 230 230 230 224 228 228 230 238 321 246 248 240 241 252 266 285 316 358 36 356 247 163 176 187 213 257 50 20 10 305 127 220 199 197 173 157 165
225 229 231 232 231 232 234 232 227 225 224 218 216 216 207 185 222 300 266 238 223 239 256 239 131 143 169 209 244 171 232 142 174 343 47 107 304 11 339 177 283 221 161 167 178
224 227 229 233 235 234 237 240 236 227 220 217 211 205 183 218 244 222 30 173 193 213 213 203 155 150 180 213 194 170 227 140 142 152 164 210 236 285 270 231 36 129 156 178 188
221 222 226 230 234 236 236 242 240 231 219 212 209 204 202 216 239 240 219 72 179 186 195 203 207 196 216 233 166 126 188 286 125 216 217 179 244 105 277 119 142 160 187 192 194
218 222 224 228 231 232 234 238 237 233 223 210 206 199 243 215 266 225 227 209 136 178 161 205 262 182 164 216 205 144 137 343 228 170 243 139 277 224 228 275 187 211 215 205 213
216 219 223 223 229 233 237 237 240 238 232 215 203 192 236 237 207 215 204 176 172 193 200 170 156 147 178 254 31 147 75 145 268 166 242 123 264 250 234 236 266 243 236 235 233
218 218 225 224 227 233 231 235 239 240 232 220 189 174 227 224 219 218 196 187 170 168 171 155 127 153 75 120 49 328 187 183 290 208 159 183 253 270 215 205 248 264 263 244 243
219 220 223 229 227 228 230 225 236 243 234 228 190 130 265 213 181 207 199 190 151 132 93 100 88 152 142 150 197 187 201 214 201 230 196 209 249 253 220 175 226 242 257 271 257
215 217 213 221 223 219 209 176 103 264 213 202 168 193 123 192 185 188 195 161 126 143 165 198 192 202 193 186 166 160 186 201 231 249 205 231 235 257 234 234 252 258 259 262 261
216 212 213 211 215 212 205 190 209 43 233 227 239 203 341 170 165 189 185 162 174 188 131 180 222 202 162 190 198 185 182 224 289 286 168 272 253 248 218 217 214 233 260 252 254
216 216 210 209 206 209 208 209 203 266 252 242 208 201 142 190 186 190 180 165 176 187 188 201 174 176 182 186 205 224 201 183 210 326 311 333 280 238 265 215 217 229 238 252 242
215 216 212 205 192 203 215 216 215 295 243 207 175 186 207 286 251 193 193 172 180 196 173 224 228 184 187 205 183 216 166 188 204 164 240 20 279 272 251 263 236 239 238 242 243
216 216 213 201 179 193 192 208 208 154 225 189 164 158 167 189 142 200 183 196 177 170 161 196 176 181 204 198 189 214 169 183 161 155 32 239 295 275 298 278 267 251 249 243 239
217 216 212 208 194 203 192 182 160 205 214 173 139 163 157 201 223 137 176 171 145 161 217 198 200 189 195 185 189 144 92 77 87 123 254 217 197 223 181 212 245 248 260 247 251
212 209 205 205 199 184 178 163 207 215 152 185 173 164 177 175 188 178 184 196 187 184 199 192 213 205 147 162 152 182 151 169 197 206 236 227 189 253 268 259 231 263 251 209 178
204 201 208 206 197 182 173 203 221 199 183 194 171 179 186 176 205 191 192 196 205 198 173 183 213 189 177 186 184 195 178 158 182 210 224 130 227 253 235 256 237 238 238 165 129
192 202 208 204 191 181 191 216 206 174 178 157 181 183 193 179 180 183 202 193 194 192 181 195 218 117 177 175 158 177 206 173 105 3 70 215 292 302 250 263 226 237 147 181 156
181 189 207 193 184 187 208 219 195 209 148 191 199 181 190 188 188 197 193 199 196 202 205 211 195 192 189 151 189 181 157 176 197 166 241 250 257 229 234 237 248 204 186 194 179
174 211 194 187 187 201 216 223 214 215 182 185 211 179 210 177 197 195 194 200 195 196 199 174 130 228 144 203 172 162 197 178 173 161 188 239 252 204 211 210 226 209 203 200 195
160 201 175 169 190 207 200 154 189 256 154 253 224 185 183 194 195 201 208 196 202 188 200 195 119 168 199 153 284 203 193 193 207 213 236 130 251 163 220 191 201 214 214 201 187
146 118 169 167 197 218 112 125 36 205 250 209 223 205 228 190 202 199 204 217 194 198 189 178 190 163 175 297 300 207 205 204 221 68 215 211 260 203 137 191 225 196 218 196 174
123 150 158 170 186 177 105 144 175 181 239 239 267 237 191 209 207 193 210 205 191 200 200 176 175 209 204 203 158 204 201 202 205 222 231 225 250 245 217 229 246 223 214 192 188
113 197 160 156 184 199 165 346 178 183 190 216 236 246 226 215 202 181 208 178 190 206 200 195 215 204 237 5 188 208 209 210 206 225 220 237 231 251 243 230 227 222 221 195 202
140 128 70 113 148 190 178 207 161 209 214 242 231 134 212 224 217 199 181 193 203 199 203 209 226 210 223 225 214 229 217 213 218 232 240 254 253 252 257 228 211 207 197 205 212
57 68 105 135 139 166 204 221 214 192 248 246 234 193 248 251 225 263 277 287 299 203 195 199 211 195 229 201 170 234 204 205 216 227 224 230 236 246 257 222 218 209 187 209 218